GSAT0214 (GALILEO 18)

Last updated on Nov. 13, 2019, 4:20 a.m. UTC

1 41862U 16069D   19316.01278594  .00000088  00000-0  00000+0 0  9994
2 41862  54.6163 167.9088 0000892 314.4582  45.6439  1.70473258 18572
UTC
Height (km)
Latitude
Longitude
Inclination
Orbital Period
UTC large
Height (km)
Speed (km/s)
/
Latitude / Longitude
Inclination (degrees)
Orbital Period (minutes)
Azimuth
Elevation
Range (km)
Doppler Factor
iOS Compass Heading
iOS Angle

Next 30 passes for location: Hong Kong

Rise time Rise Azimuth (degrees) Set time Set Azimuth (degrees) Duration Max altitude (degrees)

No matching passes for this satellites